Year,Month,Day,Hour,Minute,Value (Times are PST for temperature in C)
2008,07,11,00,00,11.70
2008,07,11,00,01,11.70
2008,07,11,00,02,11.70
2008,07,11,00,03,11.70
2008,07,11,00,04,11.70
2008,07,11,00,05,11.70
2008,07,11,00,06,11.70
2008,07,11,00,07,11.70
2008,07,11,00,08,11.70
2008,07,11,00,09,11.60
2008,07,11,00,10,11.60
2008,07,11,00,11,11.60
2008,07,11,00,12,11.50
2008,07,11,00,13,11.50
2008,07,11,00,14,11.50
2008,07,11,00,15,11.40
2008,07,11,00,16,11.40
2008,07,11,00,17,11.40
2008,07,11,00,18,11.40
2008,07,11,00,19,11.40
2008,07,11,00,20,11.40
2008,07,11,00,21,11.40
2008,07,11,00,22,11.40
2008,07,11,00,23,11.30
2008,07,11,00,24,11.30
2008,07,11,00,25,11.30
2008,07,11,00,26,11.30
2008,07,11,00,27,11.30
2008,07,11,00,28,11.30
2008,07,11,00,29,11.20
2008,07,11,00,30,11.20
2008,07,11,00,31,11.20
2008,07,11,00,32,11.20
2008,07,11,00,33,11.20
2008,07,11,00,34,11.20
2008,07,11,00,35,11.10
2008,07,11,00,36,11.10
2008,07,11,00,37,11.10
2008,07,11,00,38,11.00
2008,07,11,00,39,11.00
2008,07,11,00,40,11.00
2008,07,11,00,41,11.00
2008,07,11,00,42,10.90
2008,07,11,00,43,10.90
2008,07,11,00,44,10.90
2008,07,11,00,45,10.90
2008,07,11,00,46,10.90
2008,07,11,00,47,10.90
2008,07,11,00,48,10.90
2008,07,11,00,49,10.90
2008,07,11,00,50,10.90
2008,07,11,00,51,10.90
2008,07,11,00,52,10.90
2008,07,11,00,53,10.80
2008,07,11,00,54,10.80
2008,07,11,00,55,10.80
2008,07,11,00,56,10.80
2008,07,11,00,57,10.80
2008,07,11,00,58,10.80
2008,07,11,00,59,10.80
2008,07,11,01,00,10.80
2008,07,11,01,01,10.80
2008,07,11,01,02,10.70
2008,07,11,01,03,10.70
2008,07,11,01,04,10.70
2008,07,11,01,05,10.70
2008,07,11,01,06,10.70
2008,07,11,01,07,10.70
2008,07,11,01,08,10.70
2008,07,11,01,09,10.60
2008,07,11,01,10,10.60
2008,07,11,01,11,10.60
2008,07,11,01,12,10.60
2008,07,11,01,13,10.60
2008,07,11,01,14,10.60
2008,07,11,01,15,10.50
2008,07,11,01,16,10.50
2008,07,11,01,17,10.50
2008,07,11,01,18,10.40
2008,07,11,01,19,10.40
2008,07,11,01,20,10.40
2008,07,11,01,21,10.40
2008,07,11,01,22,10.40
2008,07,11,01,23,10.30
2008,07,11,01,24,10.30
2008,07,11,01,25,10.30
2008,07,11,01,26,10.30
2008,07,11,01,27,10.30
2008,07,11,01,28,10.30
2008,07,11,01,29,10.30
2008,07,11,01,30,10.30
2008,07,11,01,31,10.20
2008,07,11,01,32,10.20
2008,07,11,01,33,10.20
2008,07,11,01,34,10.20
2008,07,11,01,35,10.20
2008,07,11,01,36,10.20
2008,07,11,01,37,10.20
2008,07,11,01,38,10.20
2008,07,11,01,39,10.20
2008,07,11,01,40,10.20
2008,07,11,01,41,10.20
2008,07,11,01,42,10.20
2008,07,11,01,43,10.10
2008,07,11,01,44,10.10
2008,07,11,01,45,10.10
2008,07,11,01,46,10.10
2008,07,11,01,47,10.10
2008,07,11,01,48,10.10
2008,07,11,01,49,10.10
2008,07,11,01,50,10.10
2008,07,11,01,51,10.10
2008,07,11,01,52,10.00
2008,07,11,01,53,10.00
2008,07,11,01,54,10.00
2008,07,11,01,55,10.00
2008,07,11,01,56,10.00
2008,07,11,01,57,9.90
2008,07,11,01,58,9.90
2008,07,11,01,59,9.90
2008,07,11,02,00,9.90
2008,07,11,02,01,9.90
2008,07,11,02,02,9.90
2008,07,11,02,03,9.90
2008,07,11,02,04,9.80
2008,07,11,02,05,9.80
2008,07,11,02,06,9.80
2008,07,11,02,07,9.80
2008,07,11,02,08,9.90
2008,07,11,02,09,9.90
2008,07,11,02,10,9.80
2008,07,11,02,11,9.80
2008,07,11,02,12,9.80
2008,07,11,02,13,9.80
2008,07,11,02,14,9.80
2008,07,11,02,15,9.70
2008,07,11,02,16,9.70
2008,07,11,02,17,9.70
2008,07,11,02,18,9.70
2008,07,11,02,19,9.70
2008,07,11,02,20,9.70
2008,07,11,02,21,9.60
2008,07,11,02,22,9.60
2008,07,11,02,23,9.60
2008,07,11,02,24,9.60
2008,07,11,02,25,9.60
2008,07,11,02,26,9.60
2008,07,11,02,27,9.60
2008,07,11,02,28,9.60
2008,07,11,02,29,9.60
2008,07,11,02,30,9.60
2008,07,11,02,31,9.60
2008,07,11,02,32,9.60
2008,07,11,02,33,9.60
2008,07,11,02,34,9.50
2008,07,11,02,35,9.50
2008,07,11,02,36,9.50
2008,07,11,02,37,9.50
2008,07,11,02,38,9.50
2008,07,11,02,39,9.50
2008,07,11,02,40,9.50
2008,07,11,02,41,9.60
2008,07,11,02,42,9.60
2008,07,11,02,43,9.60
2008,07,11,02,44,9.60
2008,07,11,02,45,9.60
2008,07,11,02,46,9.60
2008,07,11,02,47,9.60
2008,07,11,02,48,9.60
2008,07,11,02,49,9.60
2008,07,11,02,50,9.60
2008,07,11,02,51,9.60
2008,07,11,02,52,9.60
2008,07,11,02,53,9.60
2008,07,11,02,54,9.70
2008,07,11,02,55,9.70
2008,07,11,02,56,9.70
2008,07,11,02,57,9.70
2008,07,11,02,58,9.70
2008,07,11,02,59,9.80
2008,07,11,03,00,9.80
2008,07,11,03,01,9.80
2008,07,11,03,02,9.80
2008,07,11,03,03,9.80
2008,07,11,03,04,9.80
2008,07,11,03,05,9.80
2008,07,11,03,06,9.80
2008,07,11,03,07,9.80
2008,07,11,03,08,9.80
2008,07,11,03,09,9.80
2008,07,11,03,10,9.80
2008,07,11,03,11,9.80
2008,07,11,03,12,9.80
2008,07,11,03,13,9.80
2008,07,11,03,14,9.90
2008,07,11,03,15,9.90
2008,07,11,03,16,9.90
2008,07,11,03,17,9.90
2008,07,11,03,18,9.90
2008,07,11,03,19,9.90
2008,07,11,03,20,9.90
2008,07,11,03,21,9.90
2008,07,11,03,22,9.90
2008,07,11,03,23,9.90
2008,07,11,03,24,9.90
2008,07,11,03,25,9.90
2008,07,11,03,26,9.90
2008,07,11,03,27,9.90
2008,07,11,03,28,9.80
2008,07,11,03,29,9.80
2008,07,11,03,30,9.80
2008,07,11,03,31,9.80
2008,07,11,03,32,9.80
2008,07,11,03,33,9.80
2008,07,11,03,34,9.80
2008,07,11,03,35,9.70
2008,07,11,03,36,9.70
2008,07,11,03,37,9.70
2008,07,11,03,38,9.70
2008,07,11,03,39,9.70
2008,07,11,03,40,9.70
2008,07,11,03,41,9.70
2008,07,11,03,42,9.70
2008,07,11,03,43,9.70
2008,07,11,03,44,9.70
2008,07,11,03,45,9.70
2008,07,11,03,46,9.70
2008,07,11,03,47,9.70
2008,07,11,03,48,9.70
2008,07,11,03,49,9.70
2008,07,11,03,50,9.70
2008,07,11,03,51,9.70
2008,07,11,03,52,9.70
2008,07,11,03,53,9.70
2008,07,11,03,54,9.70
2008,07,11,03,55,9.70
2008,07,11,03,56,9.70
2008,07,11,03,57,9.70
2008,07,11,03,58,9.70
2008,07,11,03,59,9.70
2008,07,11,04,00,9.70
2008,07,11,04,01,9.70
2008,07,11,04,02,9.70
2008,07,11,04,03,9.70
2008,07,11,04,04,9.70
2008,07,11,04,05,9.70
2008,07,11,04,06,9.60
2008,07,11,04,07,9.60
2008,07,11,04,08,9.60
2008,07,11,04,09,9.60
2008,07,11,04,10,9.60
2008,07,11,04,11,9.60
2008,07,11,04,12,9.60
2008,07,11,04,13,9.60
2008,07,11,04,14,9.60
2008,07,11,04,15,9.60
2008,07,11,04,16,9.60
2008,07,11,04,17,9.60
2008,07,11,04,18,9.60
2008,07,11,04,19,9.70
2008,07,11,04,20,9.70
2008,07,11,04,21,9.80
2008,07,11,04,22,9.80
2008,07,11,04,23,10.00
2008,07,11,04,24,10.00
2008,07,11,04,25,10.10
2008,07,11,04,26,10.20
2008,07,11,04,27,10.40
2008,07,11,04,28,10.50
2008,07,11,04,29,10.50
2008,07,11,04,30,10.60
2008,07,11,04,31,10.70
2008,07,11,04,32,10.70
2008,07,11,04,33,10.70
2008,07,11,04,34,10.70
2008,07,11,04,35,10.70
2008,07,11,04,36,10.70
2008,07,11,04,37,10.70
2008,07,11,04,38,10.70
2008,07,11,04,39,10.70
2008,07,11,04,40,10.60
2008,07,11,04,41,10.60
2008,07,11,04,42,10.60
2008,07,11,04,43,10.60
2008,07,11,04,44,10.60
2008,07,11,04,45,10.60
2008,07,11,04,46,10.50
2008,07,11,04,47,10.50
2008,07,11,04,48,10.50
2008,07,11,04,49,10.50
2008,07,11,04,50,10.50
2008,07,11,04,51,10.50
2008,07,11,04,52,10.40
2008,07,11,04,53,10.40
2008,07,11,04,54,10.40
2008,07,11,04,55,10.40
2008,07,11,04,56,10.30
2008,07,11,04,57,10.30
2008,07,11,04,58,10.30
2008,07,11,04,59,10.30
2008,07,11,05,00,10.30
2008,07,11,05,01,10.20
2008,07,11,05,02,10.20
2008,07,11,05,03,10.20
2008,07,11,05,04,10.20
2008,07,11,05,05,10.20
2008,07,11,05,06,10.20
2008,07,11,05,07,10.20
2008,07,11,05,08,10.20
2008,07,11,05,09,10.20
2008,07,11,05,10,10.20
2008,07,11,05,11,10.20
2008,07,11,05,12,10.20
2008,07,11,05,13,10.20
2008,07,11,05,14,10.20
2008,07,11,05,15,10.20
2008,07,11,05,16,10.20
2008,07,11,05,17,10.20
2008,07,11,05,18,10.30
2008,07,11,05,19,10.30
2008,07,11,05,20,10.30
2008,07,11,05,21,10.20
2008,07,11,05,22,10.20
2008,07,11,05,23,10.20
2008,07,11,05,24,10.20
2008,07,11,05,25,10.20
2008,07,11,05,26,10.20
2008,07,11,05,27,10.20
2008,07,11,05,28,10.20
2008,07,11,05,29,10.20
2008,07,11,05,30,10.20
2008,07,11,05,31,10.20
2008,07,11,05,32,10.20
2008,07,11,05,33,10.20
2008,07,11,05,34,10.20
2008,07,11,05,35,10.20
2008,07,11,05,36,10.20
2008,07,11,05,37,10.20
2008,07,11,05,38,10.30
2008,07,11,05,39,10.30
2008,07,11,05,40,10.30
2008,07,11,05,41,10.30
2008,07,11,05,42,10.30
2008,07,11,05,43,10.30
2008,07,11,05,44,10.20
2008,07,11,05,45,10.20
2008,07,11,05,46,10.20
2008,07,11,05,47,10.20
2008,07,11,05,48,10.20
2008,07,11,05,49,10.20
2008,07,11,05,50,10.20
2008,07,11,05,51,10.10
2008,07,11,05,52,10.10
2008,07,11,05,53,10.10
2008,07,11,05,54,10.10
2008,07,11,05,55,10.10
2008,07,11,05,56,10.20
2008,07,11,05,57,10.20
2008,07,11,05,58,10.20
2008,07,11,05,59,10.20
2008,07,11,06,00,10.30
2008,07,11,06,01,10.30
2008,07,11,06,02,10.30
2008,07,11,06,03,10.40
2008,07,11,06,04,10.50
2008,07,11,06,05,10.60
2008,07,11,06,06,10.70
2008,07,11,06,07,10.70
2008,07,11,06,08,10.80
2008,07,11,06,09,10.90
2008,07,11,06,10,10.90
2008,07,11,06,11,11.00
2008,07,11,06,12,11.10
2008,07,11,06,13,11.10
2008,07,11,06,14,11.20
2008,07,11,06,15,11.20
2008,07,11,06,16,11.30
2008,07,11,06,17,11.30
2008,07,11,06,18,11.30
2008,07,11,06,19,11.40
2008,07,11,06,20,11.40
2008,07,11,06,21,11.40
2008,07,11,06,22,11.50
2008,07,11,06,23,11.50
2008,07,11,06,24,11.50
2008,07,11,06,25,11.50
2008,07,11,06,26,11.50
2008,07,11,06,27,11.50
2008,07,11,06,28,11.50
2008,07,11,06,29,11.50
2008,07,11,06,30,11.50
2008,07,11,06,31,11.40
2008,07,11,06,32,11.40
2008,07,11,06,33,11.40
2008,07,11,06,34,11.40
2008,07,11,06,35,11.40
2008,07,11,06,36,11.40
2008,07,11,06,37,11.40
2008,07,11,06,38,11.40
2008,07,11,06,39,11.40
2008,07,11,06,40,11.40
2008,07,11,06,41,11.40
2008,07,11,06,42,11.40
2008,07,11,06,43,11.40
2008,07,11,06,44,11.40
2008,07,11,06,45,11.50
2008,07,11,06,46,11.50
2008,07,11,06,47,11.50
2008,07,11,06,48,11.50
2008,07,11,06,49,11.60
2008,07,11,06,50,11.60
2008,07,11,06,51,11.60
2008,07,11,06,52,11.60
2008,07,11,06,53,11.60
2008,07,11,06,54,11.70
2008,07,11,06,55,11.70
2008,07,11,06,56,11.80
2008,07,11,06,57,11.80
2008,07,11,06,58,11.80
2008,07,11,06,59,11.80
2008,07,11,07,00,11.80
2008,07,11,07,01,11.90
2008,07,11,07,02,11.90
2008,07,11,07,03,12.00
2008,07,11,07,04,12.00
2008,07,11,07,05,12.10
2008,07,11,07,06,12.10
2008,07,11,07,07,12.20
2008,07,11,07,08,12.30
2008,07,11,07,09,12.30
2008,07,11,07,10,12.40
2008,07,11,07,11,12.40
2008,07,11,07,12,12.50
2008,07,11,07,13,12.50
2008,07,11,07,14,12.60
2008,07,11,07,15,12.60
2008,07,11,07,16,12.70
2008,07,11,07,17,12.70
2008,07,11,07,18,12.70
2008,07,11,07,19,12.70
2008,07,11,07,20,12.70
2008,07,11,07,21,12.70
2008,07,11,07,22,12.80
2008,07,11,07,23,12.80
2008,07,11,07,24,12.80
2008,07,11,07,25,12.80
2008,07,11,07,26,12.80
2008,07,11,07,27,12.80
2008,07,11,07,28,12.80
2008,07,11,07,29,12.90
2008,07,11,07,30,12.90
2008,07,11,07,31,13.00
2008,07,11,07,32,13.10
2008,07,11,07,33,13.10
2008,07,11,07,34,13.10
2008,07,11,07,35,13.00
2008,07,11,07,36,13.10
2008,07,11,07,37,13.10
2008,07,11,07,38,13.20
2008,07,11,07,39,13.20
2008,07,11,07,40,13.20
2008,07,11,07,41,13.20
2008,07,11,07,42,13.20
2008,07,11,07,43,13.30
2008,07,11,07,44,13.40
2008,07,11,07,45,13.50
2008,07,11,07,46,13.60
2008,07,11,07,47,13.70
2008,07,11,07,48,13.80
2008,07,11,07,49,13.80
2008,07,11,07,50,13.80
2008,07,11,07,51,13.90
2008,07,11,07,52,14.00
2008,07,11,07,53,14.00
2008,07,11,07,54,14.10
2008,07,11,07,55,14.20
2008,07,11,07,56,14.30
2008,07,11,07,57,14.40
2008,07,11,07,58,14.40
2008,07,11,07,59,14.50
2008,07,11,08,00,14.60
2008,07,11,08,01,14.70
2008,07,11,08,02,14.70
2008,07,11,08,03,14.70
2008,07,11,08,04,14.80
2008,07,11,08,05,14.80
2008,07,11,08,06,14.80
2008,07,11,08,07,14.80
2008,07,11,08,08,14.80
2008,07,11,08,09,14.80
2008,07,11,08,10,14.80
2008,07,11,08,11,14.90
2008,07,11,08,12,15.00
2008,07,11,08,13,15.00
2008,07,11,08,14,15.00
2008,07,11,08,15,15.10
2008,07,11,08,16,15.10
2008,07,11,08,17,15.10
2008,07,11,08,18,15.00
2008,07,11,08,19,15.00
2008,07,11,08,20,15.10
2008,07,11,08,21,15.20
2008,07,11,08,22,15.30
2008,07,11,08,23,15.30
2008,07,11,08,24,15.30
2008,07,11,08,25,15.30
2008,07,11,08,26,15.30
2008,07,11,08,27,15.40
2008,07,11,08,28,15.40
2008,07,11,08,29,15.40
2008,07,11,08,30,15.50
2008,07,11,08,31,15.60
2008,07,11,08,32,15.50
2008,07,11,08,33,15.50
2008,07,11,08,34,15.60
2008,07,11,08,35,15.60
2008,07,11,08,36,15.70
2008,07,11,08,37,15.60
2008,07,11,08,38,15.60
2008,07,11,08,39,15.60
2008,07,11,08,40,15.60
2008,07,11,08,41,15.50
2008,07,11,08,42,15.50
2008,07,11,08,43,15.50
2008,07,11,08,44,15.50
2008,07,11,08,45,15.50
2008,07,11,08,46,15.60
2008,07,11,08,47,15.80
2008,07,11,08,48,15.80
2008,07,11,08,49,15.80
2008,07,11,08,50,15.80
2008,07,11,08,51,15.80
2008,07,11,08,52,15.80
2008,07,11,08,53,15.80
2008,07,11,08,54,15.90
2008,07,11,08,55,15.90
2008,07,11,08,56,16.00
2008,07,11,08,57,15.90
2008,07,11,08,58,16.00
2008,07,11,08,59,16.00
2008,07,11,09,00,16.00
2008,07,11,09,01,15.90
2008,07,11,09,02,15.90
2008,07,11,09,03,16.00
2008,07,11,09,04,16.00
2008,07,11,09,05,16.10
2008,07,11,09,06,16.20
2008,07,11,09,07,16.30
2008,07,11,09,08,16.40
2008,07,11,09,09,16.40
2008,07,11,09,10,16.40
2008,07,11,09,11,16.30
2008,07,11,09,12,16.30
2008,07,11,09,13,16.30
2008,07,11,09,14,16.30
2008,07,11,09,15,16.30
2008,07,11,09,16,16.20
2008,07,11,09,17,16.20
2008,07,11,09,18,16.20
2008,07,11,09,19,16.20
2008,07,11,09,20,16.20
2008,07,11,09,21,16.30
2008,07,11,09,22,16.30
2008,07,11,09,23,16.20
2008,07,11,09,24,16.10
2008,07,11,09,25,16.10
2008,07,11,09,26,16.20
2008,07,11,09,27,16.40
2008,07,11,09,28,16.40
2008,07,11,09,29,16.50
2008,07,11,09,30,16.50
2008,07,11,09,31,16.60
2008,07,11,09,32,16.60
2008,07,11,09,33,16.60
2008,07,11,09,34,16.60
2008,07,11,09,35,16.70
2008,07,11,09,36,16.70
2008,07,11,09,37,16.70
2008,07,11,09,38,16.70
2008,07,11,09,39,16.60
2008,07,11,09,40,16.60
2008,07,11,09,41,16.60
2008,07,11,09,42,16.60
2008,07,11,09,43,16.80
2008,07,11,09,44,16.90
2008,07,11,09,45,17.00
2008,07,11,09,46,17.00
2008,07,11,09,47,17.00
2008,07,11,09,48,17.00
2008,07,11,09,49,17.00
2008,07,11,09,50,17.00
2008,07,11,09,51,17.00
2008,07,11,09,52,17.00
2008,07,11,09,53,17.00
2008,07,11,09,54,16.90
2008,07,11,09,55,16.90
2008,07,11,09,56,16.90
2008,07,11,09,57,17.00
2008,07,11,09,58,17.10
2008,07,11,09,59,17.10
2008,07,11,10,00,17.10
2008,07,11,10,01,17.10
2008,07,11,10,02,17.10
2008,07,11,10,03,17.10
2008,07,11,10,04,17.10
2008,07,11,10,05,17.20
2008,07,11,10,06,17.20
2008,07,11,10,07,17.30
2008,07,11,10,08,17.30
2008,07,11,10,09,17.30
2008,07,11,10,10,17.40
2008,07,11,10,11,17.40
2008,07,11,10,12,17.40
2008,07,11,10,13,17.40
2008,07,11,10,14,17.40
2008,07,11,10,15,17.40
2008,07,11,10,16,17.40
2008,07,11,10,17,17.40
2008,07,11,10,18,17.40
2008,07,11,10,19,17.40
2008,07,11,10,20,17.50
2008,07,11,10,21,17.40
2008,07,11,10,22,17.40
2008,07,11,10,23,17.40
2008,07,11,10,24,17.50
2008,07,11,10,25,17.50
2008,07,11,10,26,17.40
2008,07,11,10,27,17.40
2008,07,11,10,28,17.40
2008,07,11,10,29,17.40
2008,07,11,10,30,17.50
2008,07,11,10,31,17.60
2008,07,11,10,32,17.60
2008,07,11,10,33,17.60
2008,07,11,10,34,17.60
2008,07,11,10,35,17.50
2008,07,11,10,36,17.50
2008,07,11,10,37,17.50
2008,07,11,10,38,17.60
2008,07,11,10,39,17.60
2008,07,11,10,40,17.60
2008,07,11,10,41,17.60
2008,07,11,10,42,17.60
2008,07,11,10,43,17.60
2008,07,11,10,44,17.60
2008,07,11,10,45,17.60
2008,07,11,10,46,17.60
2008,07,11,10,47,17.70
2008,07,11,10,48,17.70
2008,07,11,10,49,17.70
2008,07,11,10,50,17.80
2008,07,11,10,51,17.80
2008,07,11,10,52,17.80
2008,07,11,10,53,17.90
2008,07,11,10,54,17.80
2008,07,11,10,55,17.80
2008,07,11,10,56,17.80
2008,07,11,10,57,17.90
2008,07,11,10,58,17.90
2008,07,11,10,59,17.90
2008,07,11,11,00,17.90
2008,07,11,11,01,18.00
2008,07,11,11,02,18.00
2008,07,11,11,03,18.10
2008,07,11,11,04,18.10
2008,07,11,11,05,18.10
2008,07,11,11,06,18.10
2008,07,11,11,07,18.10
2008,07,11,11,08,18.10
2008,07,11,11,09,18.10
2008,07,11,11,10,18.20
2008,07,11,11,11,18.30
2008,07,11,11,12,18.30
2008,07,11,11,13,18.30
2008,07,11,11,14,18.20
2008,07,11,11,15,18.20
2008,07,11,11,16,18.20
2008,07,11,11,17,18.20
2008,07,11,11,18,18.30
2008,07,11,11,19,18.30
2008,07,11,11,20,18.30
2008,07,11,11,21,18.30
2008,07,11,11,22,18.30
2008,07,11,11,23,18.30
2008,07,11,11,24,18.40
2008,07,11,11,25,18.50
2008,07,11,11,26,18.60
2008,07,11,11,27,18.80
2008,07,11,11,28,18.90
2008,07,11,11,29,19.00
2008,07,11,11,30,19.10
2008,07,11,11,31,19.10
2008,07,11,11,32,19.00
2008,07,11,11,33,18.90
2008,07,11,11,34,18.80
2008,07,11,11,35,18.80
2008,07,11,11,36,18.80
2008,07,11,11,37,18.80
2008,07,11,11,38,18.90
2008,07,11,11,39,19.00
2008,07,11,11,40,19.10
2008,07,11,11,41,19.20
2008,07,11,11,42,19.30
2008,07,11,11,43,19.40
2008,07,11,11,44,19.40
2008,07,11,11,45,19.50
2008,07,11,11,46,19.50
2008,07,11,11,47,19.40
2008,07,11,11,48,19.50
2008,07,11,11,49,19.60
2008,07,11,11,50,19.60
2008,07,11,11,51,19.60
2008,07,11,11,52,19.50
2008,07,11,11,53,19.50
2008,07,11,11,54,19.50
2008,07,11,11,55,19.60
2008,07,11,11,56,19.60
2008,07,11,11,57,19.60
2008,07,11,11,58,19.70
2008,07,11,11,59,19.70
2008,07,11,12,00,19.70
2008,07,11,12,01,19.70
2008,07,11,12,02,19.70
2008,07,11,12,03,19.70
2008,07,11,12,04,19.70
2008,07,11,12,05,19.70
2008,07,11,12,06,19.70
2008,07,11,12,07,19.70
2008,07,11,12,08,19.70
2008,07,11,12,09,19.80
2008,07,11,12,10,19.80
2008,07,11,12,11,19.90
2008,07,11,12,12,19.90
2008,07,11,12,13,19.90
2008,07,11,12,14,20.00
2008,07,11,12,15,20.00
2008,07,11,12,16,20.10
2008,07,11,12,17,20.10
2008,07,11,12,18,20.20
2008,07,11,12,19,20.20
2008,07,11,12,20,20.20
2008,07,11,12,21,20.20
2008,07,11,12,22,20.20
2008,07,11,12,23,20.30
2008,07,11,12,24,20.30
2008,07,11,12,25,20.20
2008,07,11,12,26,20.20
2008,07,11,12,27,20.20
2008,07,11,12,28,20.30
2008,07,11,12,29,20.20
2008,07,11,12,30,20.30
2008,07,11,12,31,20.30
2008,07,11,12,32,20.40
2008,07,11,12,33,20.30
2008,07,11,12,34,20.40
2008,07,11,12,35,20.40
2008,07,11,12,36,20.40
2008,07,11,12,37,20.40
2008,07,11,12,38,20.30
2008,07,11,12,39,20.40
2008,07,11,12,40,20.40
2008,07,11,12,41,20.40
2008,07,11,12,42,20.50
2008,07,11,12,43,20.50
2008,07,11,12,44,20.40
2008,07,11,12,45,20.40
2008,07,11,12,46,20.40
2008,07,11,12,47,20.50
2008,07,11,12,48,20.30
2008,07,11,12,49,20.30
2008,07,11,12,50,20.30
2008,07,11,12,51,20.30
2008,07,11,12,52,20.40
2008,07,11,12,53,20.50
2008,07,11,12,54,20.60
2008,07,11,12,55,20.60
2008,07,11,12,56,20.70
2008,07,11,12,57,20.90
2008,07,11,12,58,20.90
2008,07,11,12,59,20.90
2008,07,11,13,00,20.90
2008,07,11,13,01,20.90
2008,07,11,13,02,20.90
2008,07,11,13,03,20.90
2008,07,11,13,04,20.90
2008,07,11,13,05,20.90
2008,07,11,13,06,21.00
2008,07,11,13,07,21.00
2008,07,11,13,08,21.10
2008,07,11,13,09,21.10
2008,07,11,13,10,21.10
2008,07,11,13,11,21.10
2008,07,11,13,12,21.10
2008,07,11,13,13,21.10
2008,07,11,13,14,21.10
2008,07,11,13,15,21.10
2008,07,11,13,16,21.10
2008,07,11,13,17,20.90
2008,07,11,13,18,21.00
2008,07,11,13,19,21.00
2008,07,11,13,20,20.90
2008,07,11,13,21,20.90
2008,07,11,13,22,20.90
2008,07,11,13,23,20.90
2008,07,11,13,24,21.00
2008,07,11,13,25,21.10
2008,07,11,13,26,21.20
2008,07,11,13,27,21.20
2008,07,11,13,28,21.30
2008,07,11,13,29,21.30
2008,07,11,13,30,21.30
2008,07,11,13,31,21.40
2008,07,11,13,32,21.40
2008,07,11,13,33,21.50
2008,07,11,13,34,21.60
2008,07,11,13,35,21.70
2008,07,11,13,36,21.70
2008,07,11,13,37,21.50
2008,07,11,13,38,21.50
2008,07,11,13,39,21.40
2008,07,11,13,40,21.30
2008,07,11,13,41,21.10
2008,07,11,13,42,21.10
2008,07,11,13,43,21.20
2008,07,11,13,44,21.30
2008,07,11,13,45,21.30
2008,07,11,13,46,21.20
2008,07,11,13,47,21.10
2008,07,11,13,48,21.10
2008,07,11,13,49,21.00
2008,07,11,13,50,21.00
2008,07,11,13,51,21.20
2008,07,11,13,52,21.20
2008,07,11,13,53,21.20
2008,07,11,13,54,21.10
2008,07,11,13,55,21.20
2008,07,11,13,56,21.30
2008,07,11,13,57,21.30
2008,07,11,13,58,21.30
2008,07,11,13,59,21.30
2008,07,11,14,00,21.30
2008,07,11,14,01,21.20
2008,07,11,14,02,21.20
2008,07,11,14,03,21.20
2008,07,11,14,04,21.20
2008,07,11,14,05,21.20
2008,07,11,14,06,21.20
2008,07,11,14,07,21.20
2008,07,11,14,08,21.30
2008,07,11,14,09,21.30
2008,07,11,14,10,21.30
2008,07,11,14,11,21.30
2008,07,11,14,12,21.40
2008,07,11,14,13,21.40
2008,07,11,14,14,21.50
2008,07,11,14,15,21.70
2008,07,11,14,16,21.80
2008,07,11,14,17,21.80
2008,07,11,14,18,21.90
2008,07,11,14,19,22.00
2008,07,11,14,20,21.90
2008,07,11,14,21,21.80
2008,07,11,14,22,21.70
2008,07,11,14,23,21.60
2008,07,11,14,24,21.60
2008,07,11,14,25,21.50
2008,07,11,14,26,21.50
2008,07,11,14,27,21.50
2008,07,11,14,28,21.50
2008,07,11,14,29,21.60
2008,07,11,14,30,21.60
2008,07,11,14,31,21.70
2008,07,11,14,32,21.80
2008,07,11,14,33,21.70
2008,07,11,14,34,21.60
2008,07,11,14,35,21.60
2008,07,11,14,36,21.50
2008,07,11,14,37,21.60
2008,07,11,14,38,21.80
2008,07,11,14,39,21.80
2008,07,11,14,40,21.80
2008,07,11,14,41,21.80
2008,07,11,14,42,22.00
2008,07,11,14,43,22.20
2008,07,11,14,44,22.40
2008,07,11,14,45,22.50
2008,07,11,14,46,22.60
2008,07,11,14,47,22.60
2008,07,11,14,48,22.60
2008,07,11,14,49,22.70
2008,07,11,14,50,22.80
2008,07,11,14,51,22.90
2008,07,11,14,52,23.00
2008,07,11,14,53,23.10
2008,07,11,14,54,23.10
2008,07,11,14,55,23.00
2008,07,11,14,56,22.80
2008,07,11,14,57,22.70
2008,07,11,14,58,22.50
2008,07,11,14,59,22.50
2008,07,11,15,00,22.30
2008,07,11,15,01,22.10
2008,07,11,15,02,22.10
2008,07,11,15,03,22.00
2008,07,11,15,04,21.90
2008,07,11,15,05,21.90
2008,07,11,15,06,22.00
2008,07,11,15,07,22.00
2008,07,11,15,08,21.90
2008,07,11,15,09,22.00
2008,07,11,15,10,22.00
2008,07,11,15,11,22.10
2008,07,11,15,12,22.20
2008,07,11,15,13,22.20
2008,07,11,15,14,22.30
2008,07,11,15,15,22.50
2008,07,11,15,16,22.60
2008,07,11,15,17,22.70
2008,07,11,15,18,22.80
2008,07,11,15,19,22.90
2008,07,11,15,20,22.90
2008,07,11,15,21,22.90
2008,07,11,15,22,23.00
2008,07,11,15,23,23.00
2008,07,11,15,24,23.00
2008,07,11,15,25,23.10
2008,07,11,15,26,23.00
2008,07,11,15,27,22.80
2008,07,11,15,28,22.70
2008,07,11,15,29,22.80
2008,07,11,15,30,22.80
2008,07,11,15,31,22.90
2008,07,11,15,32,22.90
2008,07,11,15,33,22.90
2008,07,11,15,34,22.80
2008,07,11,15,35,22.70
2008,07,11,15,36,22.60
2008,07,11,15,37,22.50
2008,07,11,15,38,22.50
2008,07,11,15,39,22.50
2008,07,11,15,40,22.50
2008,07,11,15,41,22.40
2008,07,11,15,42,22.40
2008,07,11,15,43,22.40
2008,07,11,15,44,22.40
2008,07,11,15,45,22.50
2008,07,11,15,46,22.60
2008,07,11,15,47,22.70
2008,07,11,15,48,22.60
2008,07,11,15,49,22.60
2008,07,11,15,50,22.50
2008,07,11,15,51,22.40
2008,07,11,15,52,22.30
2008,07,11,15,53,22.40
2008,07,11,15,54,22.50
2008,07,11,15,55,22.50
2008,07,11,15,56,22.40
2008,07,11,15,57,22.40
2008,07,11,15,58,22.40
2008,07,11,15,59,22.50
2008,07,11,16,00,22.50
2008,07,11,16,01,22.50
2008,07,11,16,02,22.50
2008,07,11,16,03,22.30
2008,07,11,16,04,22.30
2008,07,11,16,05,22.20
2008,07,11,16,06,22.20
2008,07,11,16,07,22.30
2008,07,11,16,08,22.30
2008,07,11,16,09,22.20
2008,07,11,16,10,22.30
2008,07,11,16,11,22.30
2008,07,11,16,12,22.30
2008,07,11,16,13,22.20
2008,07,11,16,14,22.30
2008,07,11,16,15,22.30
2008,07,11,16,16,22.20
2008,07,11,16,17,22.10
2008,07,11,16,18,22.00
2008,07,11,16,19,22.00
2008,07,11,16,20,22.00
2008,07,11,16,21,22.00
2008,07,11,16,22,21.90
2008,07,11,16,23,21.90
2008,07,11,16,24,21.90
2008,07,11,16,25,21.90
2008,07,11,16,26,22.00
2008,07,11,16,27,22.00
2008,07,11,16,28,22.10
2008,07,11,16,29,22.10
2008,07,11,16,30,22.10
2008,07,11,16,31,22.00
2008,07,11,16,32,22.00
2008,07,11,16,33,22.10
2008,07,11,16,34,22.20
2008,07,11,16,35,22.20
2008,07,11,16,36,22.10
2008,07,11,16,37,22.10
2008,07,11,16,38,22.10
2008,07,11,16,39,22.10
2008,07,11,16,40,22.20
2008,07,11,16,41,22.20
2008,07,11,16,42,22.20
2008,07,11,16,43,22.20
2008,07,11,16,44,22.20
2008,07,11,16,45,22.20
2008,07,11,16,46,22.20
2008,07,11,16,47,22.20
2008,07,11,16,48,22.10
2008,07,11,16,49,22.20
2008,07,11,16,50,22.20
2008,07,11,16,51,22.20
2008,07,11,16,52,22.20
2008,07,11,16,53,22.30
2008,07,11,16,54,22.30
2008,07,11,16,55,22.30
2008,07,11,16,56,22.40
2008,07,11,16,57,22.40
2008,07,11,16,58,22.50
2008,07,11,16,59,22.50
2008,07,11,17,00,22.50
2008,07,11,17,01,22.40
2008,07,11,17,02,22.40
2008,07,11,17,03,22.50
2008,07,11,17,04,22.60
2008,07,11,17,05,22.60
2008,07,11,17,06,22.60
2008,07,11,17,07,22.60
2008,07,11,17,08,22.60
2008,07,11,17,09,22.60
2008,07,11,17,10,22.60
2008,07,11,17,11,22.60
2008,07,11,17,12,22.70
2008,07,11,17,13,22.70
2008,07,11,17,14,22.90
2008,07,11,17,15,23.00
2008,07,11,17,16,23.10
2008,07,11,17,17,23.10
2008,07,11,17,18,23.10
2008,07,11,17,19,23.10
2008,07,11,17,20,23.00
2008,07,11,17,21,23.10
2008,07,11,17,22,23.10
2008,07,11,17,23,23.00
2008,07,11,17,24,22.90
2008,07,11,17,25,22.80